This is the latest recevied weather packets stored in our database for station/object SV9TNF-2. If no packets are shown the sender has not sent any weather packets the latest 10 day(s).
| Time | Temp. | Humidity | Pressure | Rain* | Wind** | Luminosity | Snow |
|---|---|---|---|---|---|---|---|
| 1777965779 | 22.22° C | 52% | 1024.7 hPa | 0 mm | 4.02 m/s, 269° | - | - |
| 1777965478 | 22.22° C | 52% | 1024.7 hPa | 0 mm | 0.89 m/s, 75° | - | - |
| 1777965178 | 21.67° C | 52% | 1024.7 hPa | 0 mm | 1.34 m/s, 244° | - | - |
| 1777964878 | 21.67° C | 55% | 1024.7 hPa | 0 mm | 0.45 m/s, 243° | - | - |
| 1777964578 | 20.56° C | 56% | 1024.7 hPa | 0 mm | 5.36 m/s, 14° | - | - |
| 1777964278 | 20.56° C | 55% | 1024.7 hPa | 0 mm | 4.02 m/s, 25° | - | - |
| 1777963978 | 21.67° C | 54% | 1024.7 hPa | 0 mm | 5.81 m/s, 244° | - | - |
| 1777963678 | 21.67° C | 54% | 1024.4 hPa | 0 mm | 3.13 m/s, 264° | - | - |
| 1777963378 | 21.67° C | 54% | 1024.4 hPa | 0 mm | 4.02 m/s, 258° | - | - |
| 1777963077 | 21.67° C | 55% | 1024.4 hPa | 0 mm | 6.26 m/s, 257° | - | - |
| 1777962778 | 21.67° C | 56% | 1024.4 hPa | 0 mm | 2.68 m/s, 259° | - | - |
| 1777962477 | 21.67° C | 56% | 1024.4 hPa | 0 mm | 1.34 m/s, 233° | - | - |
| 1777962177 | 21.11° C | 57% | 1024.4 hPa | 0 mm | 2.24 m/s, 286° | - | - |
| 1777961877 | 20.56° C | 58% | 1024.4 hPa | 0 mm | 1.79 m/s, 186° | - | - |
| 1777961577 | 20.56° C | 59% | 1024.4 hPa | 0 mm | 0.45 m/s, 236° | - | - |
| 1777961277 | 20.56° C | 61% | 1024.4 hPa | 0 mm | 0.89 m/s, 255° | - | - |
| 1777960977 | 20° C | 61% | 1024.4 hPa | 0 mm | 4.47 m/s, 273° | - | - |
| 1777960676 | 19.44° C | 64% | 1024.4 hPa | 0 mm | 2.24 m/s, 282° | - | - |
| 1777960377 | 19.44° C | 64% | 1024.4 hPa | 0 mm | 1.79 m/s, 252° | - | - |
| 1777960077 | 20° C | 65% | 1023.7 hPa | 0 mm | 3.13 m/s, 274° | - | - |
| 1777959776 | 19.44° C | 65% | 1023.7 hPa | 0 mm | 1.34 m/s, 241° | - | - |
| 1777959476 | 18.89° C | 66% | 1023.7 hPa | 0 mm | 1.34 m/s, 255° | - | - |
| 1777959176 | 18.89° C | 66% | 1023.7 hPa | 0 mm | 1.34 m/s, 258° | - | - |
| 1777958876 | 18.89° C | 69% | 1023.7 hPa | 0 mm | 0 m/s | - | - |
| 1777958576 | 18.33° C | 71% | 1023.7 hPa | 0 mm | 0.45 m/s, 269° | - | - |
* Rain latest hour (hover to see other rain measurements)
** Current wind speed in m/s (hover to see current wind gust speed)